Simultaneous Nadir Overpasses (SNOs) Predictions

Prediction of SNOs between NOAA-20 and AQUA Satellite Orbit:

Table of predicted SNOs for the next 14.0 days since TLE Epoch: 4/13/2024
Index Date (NOAA-20) Time (NOAA-20) Lat,Lon (NOAA-20) SZA (NOAA-20 ) Date (AQUA) Time (AQUA) Lat,Lon (AQUA) SZA (AQUA ) Distance(km) Time Diff (sec)
1 04/13/2024 10:39:52 81.23, -57.99 78.99 04/13/2024 10:40:30 81.22, -58.18 78.99 3.19 38
2 04/13/2024 11:30:36 -81.24, 109.86 101.11 04/13/2024 11:29:52 -81.24, 109.88 101.08 0.42 44
3 04/15/2024 23:33:59 81.24, 108.92 78.01 04/15/2024 23:34:15 81.24, 108.77 78.02 2.48 16
4 04/16/2024 00:24:44 -81.24, -83.58 102.04 04/16/2024 00:23:38 -81.24, -83.54 102.00 0.75 66
5 04/18/2024 11:37:52 -80.83, 97.46 101.29 04/18/2024 11:39:06 -80.58, 98.15 101.46 29.91 74
6 04/18/2024 12:28:08 81.24, -84.62 77.11 04/18/2024 12:28:01 81.24, -84.66 77.12 0.78 7
7 04/21/2024 00:31:34 -81.22, -86.15 103.67 04/21/2024 00:32:25 -81.22, -86.09 103.71 1.05 51
8 04/21/2024 01:22:17 81.24, 81.80 76.23 04/21/2024 01:21:46 81.23, 81.90 76.24 1.79 31
9 04/23/2024 13:25:41 -81.24, 81.00 104.62 04/23/2024 13:26:08 -81.23, 80.86 104.62 2.38 27
10 04/23/2024 14:16:24 81.25,-111.07 75.28 04/23/2024 14:15:29 81.25,-111.16 75.33 1.41 55



Historial Predications of SNOs between NOAA-20 and AQUA
